TimePST,TemperatureF,Dew PointF,Humidity,Sea Level PressureIn,VisibilityMPH,Wind Direction,Wind SpeedMPH,Gust SpeedMPH,PrecipitationIn,Events,Conditions,WindDirDegrees,DateUTC
12:55 AM,1.9,-4.0,76,30.12,6.0,Calm,Calm,-,N/A,,Haze,0,2013-12-06 08:55:00
1:21 AM,5.0,-0.9,76,29.96,2.5,Calm,Calm,-,N/A,,Haze,0,2013-12-06 09:21:00
1:39 AM,3.0,-2.0,80,29.96,5.0,Calm,Calm,-,N/A,,Haze,0,2013-12-06 09:39:00
1:55 AM,3.9,-2.0,76,30.12,10.0,Calm,Calm,-,N/A,,Overcast,0,2013-12-06 09:55:00
2:55 AM,6.1,-0.0,76,30.10,9.0,Calm,Calm,-,N/A,,Overcast,0,2013-12-06 10:55:00
3:55 AM,10.0,1.9,70,30.09,10.0,Calm,Calm,-,N/A,,Overcast,0,2013-12-06 11:55:00
4:55 AM,10.9,3.0,70,30.08,7.0,SE,4.6,-,N/A,,Overcast,140,2013-12-06 12:55:00
5:55 AM,10.0,3.0,73,30.09,10.0,Variable,3.5,-,N/A,,Mostly Cloudy,0,2013-12-06 13:55:00
6:55 AM,10.0,3.0,73,30.09,10.0,NNE,3.5,-,N/A,,Overcast,30,2013-12-06 14:55:00
7:55 AM,12.9,5.0,71,30.10,9.0,Calm,Calm,-,N/A,,Overcast,0,2013-12-06 15:55:00
8:55 AM,17.1,7.0,65,30.10,10.0,Calm,Calm,-,N/A,,Scattered Clouds,0,2013-12-06 16:55:00
9:55 AM,23.0,6.1,48,30.08,10.0,East,3.5,-,N/A,,Overcast,100,2013-12-06 17:55:00
10:55 AM,27.0,8.1,45,30.04,10.0,Calm,Calm,-,N/A,,Mostly Cloudy,0,2013-12-06 18:55:00
11:55 AM,27.0,8.1,45,30.02,10.0,West,8.1,-,N/A,,Overcast,280,2013-12-06 19:55:00
12:55 PM,28.0,10.9,49,29.99,10.0,WSW,6.9,-,N/A,,Overcast,240,2013-12-06 20:55:00
1:55 PM,30.0,12.0,47,29.93,10.0,WSW,8.1,-,N/A,,Overcast,240,2013-12-06 21:55:00
2:55 PM,30.0,10.9,45,29.90,10.0,SSW,9.2,18.4,N/A,,Overcast,210,2013-12-06 22:55:00
3:55 PM,28.9,12.9,51,29.87,10.0,WSW,10.4,-,N/A,,Overcast,250,2013-12-06 23:55:00
4:55 PM,24.1,15.1,69,29.88,10.0,West,13.8,-,0.00,,Overcast,270,2013-12-07 00:55:00
5:40 PM,21.9,17.1,82,29.74,2.5,West,11.5,-,0.00,Snow,Light Snow,260,2013-12-07 01:40:00
5:55 PM,21.9,18.0,85,29.88,2.0,West,12.7,-,0.00,Snow,Light Snow,270,2013-12-07 01:55:00
6:05 PM,21.0,18.0,88,29.74,0.8,West,11.5,-,0.01,Snow,Light Snow,270,2013-12-07 02:05:00
6:22 PM,21.0,18.0,88,29.73,1.5,West,9.2,-,0.01,Snow,Light Snow,260,2013-12-07 02:22:00
6:28 PM,21.0,18.0,88,29.73,3.0,West,9.2,-,0.01,Snow,Light Snow,260,2013-12-07 02:28:00
6:55 PM,21.0,18.0,88,29.86,2.5,West,11.5,-,0.02,Snow,Light Snow,260,2013-12-07 02:55:00
7:18 PM,21.0,18.0,88,29.73,1.5,West,13.8,-,0.00,Snow,Light Snow,270,2013-12-07 03:18:00
7:32 PM,21.0,17.1,85,29.73,2.5,West,12.7,-,0.00,Snow,Light Snow,270,2013-12-07 03:32:00
7:40 PM,21.0,17.1,85,29.73,4.0,West,13.8,-,0.00,Snow,Light Snow,280,2013-12-07 03:40:00
7:55 PM,21.0,17.1,85,29.85,9.0,West,12.7,-,0.00,Snow,Light Snow,280,2013-12-07 03:55:00
8:07 PM,21.0,17.1,85,29.73,2.5,WNW,10.4,-,0.00,Snow,Light Snow,290,2013-12-07 04:07:00
8:15 PM,21.0,17.1,85,29.74,1.0,WNW,11.5,-,0.00,Snow,Light Snow,290,2013-12-07 04:15:00
8:26 PM,21.0,17.1,85,29.74,0.8,WNW,10.4,-,0.01,Snow,Light Snow,290,2013-12-07 04:26:00
8:37 PM,21.0,17.1,85,29.74,1.0,West,9.2,-,0.01,Snow,Light Snow,280,2013-12-07 04:37:00
8:55 PM,21.0,18.0,88,29.85,1.2,West,5.8,-,0.02,Snow,Light Snow,270,2013-12-07 04:55:00
9:03 PM,21.0,18.0,88,29.74,1.5,West,4.6,-,0.00,Snow,Light Snow,270,2013-12-07 05:03:00
9:26 PM,21.0,18.0,88,29.74,0.8,West,4.6,-,0.01,Snow,Light Snow,260,2013-12-07 05:26:00
9:31 PM,21.0,18.0,88,29.74,1.0,Calm,Calm,-,0.01,Snow,Light Snow,0,2013-12-07 05:31:00
9:55 PM,21.0,18.0,88,29.83,1.0,South,3.5,-,0.02,Snow,Light Snow,190,2013-12-07 05:55:00
9:58 PM,21.0,18.0,88,29.73,0.8,South,3.5,-,0.00,Snow,Light Snow,180,2013-12-07 05:58:00
10:05 PM,21.0,18.0,88,29.73,1.0,South,3.5,-,0.01,Snow,Light Snow,190,2013-12-07 06:05:00
10:55 PM,19.9,18.0,92,29.81,1.2,SE,3.5,-,0.02,Snow,Light Snow,130,2013-12-07 06:55:00
11:55 PM,21.0,18.0,88,29.79,1.0,Calm,Calm,-,0.03,Snow,Light Snow,0,2013-12-07 07:55:00